[[{"header":{"parameterUnit":"m.s-1","parameterCategory":2,"la1":30.2992,"la2":30.254,"lo1":-89.0895,"lo2":-89.0443,"dy":0.0025,"dx":0.0025,"nx":19,"ny":19,"refTime":"2026-05-02T21:00:00:Z","depth":"0","parameterNumber":2,"parameterNumberName":"U-component_of_CURRENTS"},"data":[0,0,0,-0.1356,-0.1358,-0.142,-0.142,-0.1416,-0.1416,0,0,0,0,0,0,0,0,0,0,0,-0.132,-0.1321,-0.1356,-0.1358,-0.142,-0.142,-0.1416,-0.1416,0,0,0,0,0,0,0,0,0,0,0,-0.132,-0.1321,-0.1321,-0.1358,-0.142,-0.142,-0.1416,-0.1388,0,0,0,0,0,0,0,0,0,0,-0.1337,-0.1313,-0.1321,-0.1321,-0.1359,-0.142,-0.142,-0.1387,-0.1389,-0.1368,0,-0.1378,0,-0.1406,-0.1415,-0.1415,0,0,0,-0.1347,-0.1311,-0.1339,-0.1321,-0.136,-0.142,-0.1389,-0.1389,-0.1391,-0.1371,-0.1378,-0.1379,-0.1406,-0.1415,-0.1415,-0.144,-0.144,0,0,-0.1344,-0.1319,-0.1337,-0.1341,-0.1375,-0.1387,-0.1391,-0.1391,-0.1384,-0.1378,-0.138,-0.1406,-0.1415,-0.1415,-0.144,-0.144,0,0,0,-0.1341,-0.1316,-0.1346,-0.1339,-0.1363,-0.1389,-0.1394,-0.1384,-0.1397,-0.138,-0.1406,-0.1415,-0.1414,-0.1439,-0.144,-0.1478,0,0,0,-0.1339,-0.1317,-0.1344,-0.1328,-0.1364,-0.1385,-0.1386,-0.1397,-0.1399,-0.1406,-0.1415,-0.1414,-0.1439,-0.1439,-0.1476,-0.1513,0,0,0,-0.1318,-0.1314,-0.1324,-0.1327,-0.1363,-0.1386,-0.1399,-0.1398,-0.1415,-0.1415,-0.1414,-0.1438,-0.1439,-0.1474,-0.151,-0.1546,0,0,0,-0.1287,-0.1307,-0.1323,-0.1352,-0.1362,-0.1415,-0.14,-0.1419,-0.142,-0.1415,-0.1439,-0.144,-0.1474,-0.1507,-0.1544,-0.1493,-0.15,0,0,-0.1301,-0.1308,-0.1329,-0.1346,-0.1403,-0.1406,-0.1457,-0.1444,-0.1428,-0.1429,-0.1431,-0.1477,-0.1509,-0.1546,-0.1549,-0.1554,0,0,0,-0.1327,-0.1339,-0.1359,-0.1395,-0.1433,-0.148,-0.1474,-0.1477,-0.1483,-0.1438,-0.1485,-0.1506,-0.1527,-0.1491,-0.1496,-0.1427,-0.1444,-0.1444,-0.1444,-0.1295,-0.134,-0.1379,-0.1436,-0.1472,-0.152,-0.1552,-0.1556,-0.1514,-0.1527,-0.1542,-0.1607,-0.1569,-0.1572,-0.1501,-0.1538,-0.1538,-0.1538,-0.1538,-0.131,-0.1335,-0.1397,-0.1447,-0.151,-0.1549,-0.1619,-0.1613,-0.1645,-0.1599,-0.1617,-0.1541,-0.1579,-0.1502,-0.1541,-0.154,-0.154,-0.1539,-0.1539,-0.1283,-0.1304,-0.134,-0.1414,-0.1495,-0.1566,-0.1649,-0.1689,-0.1689,-0.1715,-0.1659,-0.1657,-0.1585,-0.1707,-0.1707,-0.1708,-0.1708,-0.1708,-0.1708,-0.1226,-0.1275,-0.1297,-0.1384,-0.1434,-0.1529,-0.166,-0.17,-0.173,-0.1718,-0.1717,-0.1599,-0.1659,-0.1648,-0.1714,-0.1713,-0.1712,-0.1712,-0.1711,-0.1182,-0.1193,-0.1231,-0.1272,-0.1392,-0.145,-0.1598,-0.1673,-0.1733,-0.173,-0.1634,-0.1718,-0.1706,-0.17,-0.169,-0.1763,-0.1763,-0.1763,-0.1763,-0.1124,-0.1142,-0.1169,-0.1226,-0.1315,-0.1415,-0.1436,-0.1516,-0.1581,-0.158,-0.1618,-0.1545,-0.1546,-0.1521,-0.152,-0.1504,-0.1529,-0.1528,-0.1528,-0.1073,-0.1097,-0.1093,-0.1161,-0.1274,-0.1333,-0.13,-0.1333,-0.145,-0.1514,-0.1537,-0.1547,-0.1434,-0.1441,-0.1393,-0.1396,-0.1368,0,0]},{"header":{"parameterUnit":"m.s-1","parameterCategory":2,"la1":30.2992,"la2":30.254,"lo1":-89.0895,"lo2":-89.0443,"dy":0.0025,"dx":0.0025,"nx":19,"ny":19,"refTime":"2026-05-02T21:00:00:Z","depth":"0","parameterNumber":3,"parameterNumberName":"V-component_of_CURRENTS"},"data":[0,0,0,-0.0312,-0.0311,-0.0243,-0.0242,-0.0093,-0.0092,0,0,0,0,0,0,0,0,0,0,0,-0.0334,-0.0334,-0.0312,-0.0311,-0.0243,-0.0242,-0.0094,-0.0092,0,0,0,0,0,0,0,0,0,0,0,-0.0334,-0.0334,-0.0334,-0.0311,-0.0243,-0.0242,-0.0094,-0.0156,0,0,0,0,0,0,0,0,0,0,-0.0228,-0.0259,-0.0334,-0.0334,-0.0311,-0.0243,-0.0242,-0.0159,-0.0152,-0.0114,0,-0.0118,0,-0.011,-0.0083,-0.0082,0,0,0,-0.0289,-0.0266,-0.0257,-0.0334,-0.0311,-0.0243,-0.0267,-0.0155,-0.0147,-0.0104,-0.0116,-0.0111,-0.0108,-0.0082,-0.0081,0.0001,0.0001,0,0,-0.0293,-0.0305,-0.0263,-0.0253,-0.0311,-0.027,-0.0266,-0.0151,-0.0142,-0.0116,-0.0108,-0.0105,-0.0081,-0.008,0.0001,0.0001,0,0,0,-0.0319,-0.0308,-0.0302,-0.0258,-0.0256,-0.0268,-0.0263,-0.0147,-0.0149,-0.0106,-0.0104,-0.008,-0.0079,0.0001,0.0001,-0.0082,0,0,0,-0.032,-0.0324,-0.0305,-0.0308,-0.0259,-0.0208,-0.0262,-0.0157,-0.0144,-0.0104,-0.008,-0.0077,0.0001,0.0001,-0.008,-0.0134,0,0,0,-0.0334,-0.0325,-0.0326,-0.031,-0.0291,-0.021,-0.0204,-0.0154,-0.0143,-0.0082,-0.0077,0.0001,0.0001,-0.0078,-0.0129,-0.0122,0,0,0,-0.0336,-0.0361,-0.0326,-0.0347,-0.0292,-0.0269,-0.0204,-0.0164,-0.0119,-0.008,0.0001,0.0001,-0.0077,-0.0126,-0.012,-0.012,-0.0131,0,0,-0.0375,-0.0366,-0.0379,-0.0348,-0.0365,-0.0276,-0.0261,-0.0173,-0.0109,-0.0028,-0.0026,-0.0081,-0.0129,-0.0122,-0.014,-0.0151,0,0,0,-0.0396,-0.0415,-0.0409,-0.041,-0.037,-0.0338,-0.0243,-0.0192,-0.0121,-0.0088,-0.0064,-0.0092,-0.0085,-0.0079,-0.0087,0.0084,-0.0001,-0.0001,-0.0001,-0.0458,-0.0454,-0.0488,-0.0478,-0.0454,-0.0367,-0.0323,-0.0235,-0.0157,-0.0141,-0.0147,-0.0186,-0.0181,-0.0187,-0.001,-0.0122,-0.0122,-0.0123,-0.0123,-0.0539,-0.057,-0.0559,-0.0592,-0.0548,-0.0518,-0.0404,-0.0338,-0.0253,-0.0202,-0.019,-0.0153,-0.0201,-0.0009,-0.0128,-0.0127,-0.0126,-0.0126,-0.0126,-0.059,-0.0611,-0.0628,-0.0672,-0.0682,-0.0613,-0.0591,-0.0475,-0.035,-0.0334,-0.0272,-0.0271,-0.011,-0.0309,-0.0309,-0.0309,-0.0309,-0.031,-0.031,-0.0634,-0.066,-0.0715,-0.0753,-0.0788,-0.0787,-0.0687,-0.0616,-0.0469,-0.037,-0.0368,-0.0101,-0.0241,-0.0243,-0.0313,-0.0313,-0.0312,-0.0312,-0.0312,-0.0711,-0.0707,-0.0802,-0.0849,-0.0927,-0.0951,-0.0853,-0.0695,-0.0589,-0.0514,-0.0175,-0.0361,-0.0328,-0.032,-0.0322,-0.0408,-0.0408,-0.0408,-0.0408,-0.0748,-0.0757,-0.0885,-0.0983,-0.1054,-0.1037,-0.0966,-0.0764,-0.0398,-0.0198,-0.0117,-0.0054,-0.0058,-0.0003,-0.0002,0.0005,0.0004,0.0004,0.0005,-0.0794,-0.0831,-0.0934,-0.1033,-0.1128,-0.1113,-0.1021,-0.0762,-0.0225,0.0042,0.0123,0.0105,0.0219,0.0199,0.0304,0.0291,0.0309,0,0]}],[{"header":{"parameterUnit":"m.s-1","parameterCategory":2,"la1":30.2992,"la2":30.254,"lo1":-89.0895,"lo2":-89.0443,"dy":0.0025,"dx":0.0025,"nx":19,"ny":19,"refTime":"2026-05-02T21:00:00:Z","depth":"2","parameterNumber":2,"parameterNumberName":"U-component_of_CURRENTS"},"data":[0,0,0,-0.1221,-0.1223,-0.128,-0.1281,-0.1298,-0.1299,0,0,0,0,0,0,0,0,0,0,0,-0.1192,-0.1192,-0.1221,-0.1223,-0.128,-0.1281,-0.1298,-0.1299,0,0,0,0,0,0,0,0,0,0,0,-0.1192,-0.1192,-0.1192,-0.1223,-0.128,-0.1281,-0.1298,-0.1268,0,0,0,0,0,0,0,0,0,0,-0.1219,-0.1196,-0.1192,-0.1192,-0.1223,-0.128,-0.1281,-0.1267,-0.127,-0.1257,0,-0.1264,0,-0.1286,-0.1299,-0.1299,0,0,0,-0.122,-0.1194,-0.1216,-0.1192,-0.1224,-0.128,-0.1254,-0.1269,-0.1272,-0.1261,-0.1264,-0.1266,-0.1286,-0.1299,-0.1299,-0.1336,-0.1337,0,0,-0.1217,-0.1196,-0.1214,-0.1218,-0.1234,-0.1252,-0.1255,-0.1272,-0.1268,-0.1264,-0.1267,-0.1286,-0.1299,-0.1299,-0.1336,-0.1336,0,0,0,-0.1209,-0.1194,-0.1216,-0.1216,-0.1234,-0.1253,-0.1258,-0.1267,-0.1276,-0.1267,-0.1287,-0.1299,-0.1299,-0.1336,-0.1336,-0.1368,0,0,0,-0.1207,-0.119,-0.1215,-0.1202,-0.1234,-0.1258,-0.1252,-0.1275,-0.1278,-0.1287,-0.1299,-0.1299,-0.1335,-0.1336,-0.1366,-0.1399,0,0,0,-0.119,-0.1189,-0.1195,-0.1201,-0.123,-0.1259,-0.1269,-0.1276,-0.1289,-0.1299,-0.1299,-0.1335,-0.1336,-0.1364,-0.1396,-0.1432,0,0,0,-0.1167,-0.1182,-0.1195,-0.1219,-0.1229,-0.1279,-0.1269,-0.1294,-0.1302,-0.1299,-0.1335,-0.1336,-0.1364,-0.1394,-0.1429,-0.1369,-0.1374,0,0,-0.1177,-0.1182,-0.12,-0.1214,-0.1268,-0.1271,-0.1322,-0.1323,-0.1313,-0.1324,-0.1325,-0.1367,-0.1396,-0.1431,-0.1422,-0.1426,0,0,0,-0.1199,-0.1212,-0.1229,-0.1264,-0.1297,-0.1345,-0.1347,-0.1352,-0.1367,-0.1324,-0.1377,-0.1395,-0.1416,-0.1374,-0.1378,-0.134,-0.134,-0.134,-0.134,-0.1174,-0.1216,-0.1252,-0.1307,-0.1345,-0.139,-0.1421,-0.1431,-0.1396,-0.1411,-0.1427,-0.1488,-0.1443,-0.1445,-0.1424,-0.1424,-0.1424,-0.1424,-0.1424,-0.119,-0.1213,-0.1277,-0.1324,-0.1386,-0.1429,-0.1495,-0.1488,-0.1518,-0.1478,-0.1496,-0.1418,-0.1451,-0.1427,-0.1427,-0.1426,-0.1426,-0.1426,-0.1426,-0.1164,-0.1184,-0.1221,-0.1299,-0.138,-0.1448,-0.1524,-0.1559,-0.1561,-0.1582,-0.1525,-0.1523,-0.1513,-0.1577,-0.1577,-0.1577,-0.1577,-0.1578,-0.1578,-0.1112,-0.1161,-0.1186,-0.1274,-0.1323,-0.1413,-0.1532,-0.1567,-0.159,-0.1575,-0.1574,-0.1539,-0.1534,-0.1523,-0.1583,-0.1582,-0.1581,-0.1581,-0.158,-0.1074,-0.109,-0.1125,-0.1165,-0.1279,-0.1324,-0.1463,-0.1527,-0.1581,-0.1576,-0.1571,-0.157,-0.1559,-0.1555,-0.1544,-0.1606,-0.1606,-0.1606,-0.1606,-0.1023,-0.1042,-0.1071,-0.1122,-0.1199,-0.1285,-0.1289,-0.1347,-0.1441,-0.1459,-0.1465,-0.1396,-0.1398,-0.1374,-0.1374,-0.1358,-0.1372,-0.1372,-0.1371,-0.0982,-0.0999,-0.0995,-0.1059,-0.1155,-0.1195,-0.1146,-0.113,-0.1224,-0.136,-0.1405,-0.1594,-0.1506,-0.1504,-0.1477,-0.1473,-0.145,0,0]},{"header":{"parameterUnit":"m.s-1","parameterCategory":2,"la1":30.2992,"la2":30.254,"lo1":-89.0895,"lo2":-89.0443,"dy":0.0025,"dx":0.0025,"nx":19,"ny":19,"refTime":"2026-05-02T21:00:00:Z","depth":"2","parameterNumber":3,"parameterNumberName":"V-component_of_CURRENTS"},"data":[0,0,0,-0.0109,-0.0108,-0.004,-0.004,0.0075,0.0076,0,0,0,0,0,0,0,0,0,0,0,-0.0135,-0.0135,-0.0109,-0.0108,-0.004,-0.004,0.0075,0.0076,0,0,0,0,0,0,0,0,0,0,0,-0.0135,-0.0135,-0.0135,-0.0108,-0.004,-0.004,0.0074,0.002,0,0,0,0,0,0,0,0,0,0,-0.0048,-0.0079,-0.0135,-0.0135,-0.0107,-0.004,-0.0039,0.0017,0.0023,0.0047,0,0.0046,0,0.0059,0.0083,0.0083,0,0,0,-0.0093,-0.0084,-0.0071,-0.0135,-0.0107,-0.004,-0.0066,0.0021,0.0028,0.0056,0.0047,0.0052,0.0061,0.0083,0.0084,0.0144,0.0144,0,0,-0.0097,-0.0112,-0.0076,-0.0067,-0.0104,-0.0069,-0.0065,0.0025,0.0029,0.0048,0.0054,0.0063,0.0084,0.0085,0.0144,0.0144,0,0,0,-0.0117,-0.0115,-0.0104,-0.0071,-0.0064,-0.0067,-0.0062,0.0025,0.0027,0.0056,0.0064,0.0085,0.0086,0.0144,0.0144,0.0071,0,0,0,-0.0119,-0.0128,-0.0106,-0.0113,-0.0066,-0.0022,-0.0064,0.0021,0.0031,0.0064,0.0085,0.0087,0.0144,0.0144,0.0073,0.0025,0,0,0,-0.0135,-0.0129,-0.0128,-0.0114,-0.0092,-0.0023,-0.0015,0.0024,0.0036,0.0083,0.0087,0.0144,0.0144,0.0075,0.0029,0.0029,0,0,0,-0.0144,-0.0161,-0.0128,-0.0141,-0.0093,-0.0069,-0.0015,0.0016,0.005,0.0085,0.0144,0.0144,0.0076,0.0032,0.0031,0.0034,0.0024,0,0,-0.0174,-0.0165,-0.0173,-0.0143,-0.0151,-0.0076,-0.0064,0.0004,0.0057,0.012,0.0121,0.0072,0.003,0.0029,0.0017,0.0008,0,0,0,-0.0188,-0.0202,-0.0195,-0.0192,-0.0155,-0.013,-0.0053,-0.0012,0.0043,0.0073,0.0087,0.0063,0.0065,0.0071,0.0064,0.0142,0.0143,0.0143,0.0143,-0.0247,-0.0238,-0.0261,-0.0248,-0.0231,-0.0158,-0.0124,-0.0054,0.001,0.0022,0.0014,-0.0024,-0.0017,-0.0023,0.0037,0.0037,0.0037,0.0036,0.0036,-0.0314,-0.0336,-0.0327,-0.035,-0.0316,-0.0297,-0.0203,-0.0147,-0.0079,-0.0034,-0.0027,0.0007,-0.0035,0.0031,0.0032,0.0032,0.0033,0.0033,0.0034,-0.036,-0.0374,-0.0389,-0.0429,-0.0442,-0.0387,-0.0376,-0.0275,-0.0167,-0.0155,-0.0104,-0.0102,-0.007,-0.0137,-0.0137,-0.0137,-0.0138,-0.0138,-0.0138,-0.0404,-0.0422,-0.0476,-0.0509,-0.0543,-0.055,-0.0465,-0.0408,-0.0279,-0.019,-0.0188,-0.0082,-0.0076,-0.0078,-0.0141,-0.0141,-0.014,-0.014,-0.014,-0.047,-0.0474,-0.0558,-0.0604,-0.0682,-0.0704,-0.0623,-0.0487,-0.0395,-0.0329,-0.0188,-0.0185,-0.0157,-0.0149,-0.0152,-0.0231,-0.0231,-0.0231,-0.0231,-0.0509,-0.0518,-0.0641,-0.0737,-0.0804,-0.0787,-0.073,-0.0549,-0.0347,-0.0233,-0.0232,-0.0198,-0.0194,-0.0164,-0.0157,-0.0158,-0.0239,-0.0239,-0.0239,-0.0557,-0.0586,-0.0687,-0.0783,-0.0874,-0.0859,-0.0781,-0.0549,-0.0268,-0.0238,-0.0226,-0.0233,-0.018,-0.0175,-0.0123,-0.0114,-0.0113,0,0]}],[{"header":{"parameterUnit":"m.s-1","parameterCategory":2,"la1":30.2992,"la2":30.254,"lo1":-89.0895,"lo2":-89.0443,"dy":0.0025,"dx":0.0025,"nx":19,"ny":19,"refTime":"2026-05-02T21:00:00:Z","depth":"4","parameterNumber":2,"parameterNumberName":"U-component_of_CURRENTS"},"data":[0,0,0,-0.096,-0.0961,-0.1034,-0.1035,-0.1114,-0.1115,0,0,0,0,0,0,0,0,0,0,0,-0.0938,-0.0939,-0.0959,-0.0961,-0.1034,-0.1035,-0.1114,-0.1115,0,0,0,0,0,0,0,0,0,0,0,-0.0938,-0.0939,-0.0939,-0.0961,-0.1034,-0.1035,-0.1114,-0.1064,0,0,0,0,0,0,0,0,0,0,-0.0995,-0.0973,-0.0938,-0.0939,-0.0962,-0.1034,-0.1035,-0.1062,-0.1067,-0.1075,0,-0.1087,0,-0.1099,-0.1119,-0.112,0,0,0,-0.0967,-0.0969,-0.0989,-0.0939,-0.0962,-0.1034,-0.1003,-0.1065,-0.1071,-0.1082,-0.1089,-0.1092,-0.11,-0.112,-0.112,-0.1201,-0.1201,0,0,-0.0963,-0.0952,-0.0984,-0.0992,-0.0983,-0.1001,-0.1005,-0.1069,-0.1075,-0.1089,-0.1094,-0.1101,-0.112,-0.1121,-0.12,-0.1201,0,0,0,-0.0947,-0.0949,-0.0968,-0.0989,-0.1001,-0.1003,-0.1008,-0.1072,-0.1079,-0.1095,-0.1102,-0.1121,-0.1121,-0.12,-0.12,-0.1215,0,0,0,-0.0945,-0.0939,-0.0966,-0.096,-0.1,-0.1039,-0.101,-0.1075,-0.1082,-0.1102,-0.1121,-0.1122,-0.1199,-0.12,-0.1214,-0.122,0,0,0,-0.0935,-0.0938,-0.0947,-0.0959,-0.0988,-0.1038,-0.1049,-0.1077,-0.1086,-0.112,-0.1122,-0.1199,-0.12,-0.1213,-0.1218,-0.1274,0,0,0,-0.092,-0.0927,-0.0947,-0.096,-0.0987,-0.1037,-0.1049,-0.1093,-0.1123,-0.1121,-0.1199,-0.12,-0.1212,-0.1217,-0.1272,-0.1112,0,0,0,-0.0917,-0.0927,-0.0933,-0.0953,-0.0972,-0.1027,-0.1079,-0.1123,-0.1139,-0.1177,-0.118,-0.1214,-0.1218,-0.1273,-0.1168,0,0,0,0,-0.0924,-0.0921,-0.0934,-0.095,-0.0998,-0.1054,-0.1107,-0.1147,-0.1199,-0.116,-0.1229,-0.1231,-0.1266,-0.1168,-0.1205,-0.1205,-0.1205,-0.1204,-0.1204,-0.0885,-0.0904,-0.0911,-0.0943,-0.0986,-0.108,-0.1144,-0.1208,-0.1218,-0.1249,-0.1254,-0.132,-0.1216,-0.1267,-0.1267,-0.1267,-0.1267,-0.1267,-0.1267,-0.0848,-0.0838,-0.0885,-0.0901,-0.0977,-0.1038,-0.1166,-0.1211,-0.1316,-0.1294,-0.1327,-0.1202,-0.1269,-0.1269,-0.1269,-0.1268,-0.1268,-0.1268,-0.1268,-0.0796,-0.0792,-0.0818,-0.0852,-0.0923,-0.1024,-0.1133,-0.124,-0.1314,-0.1365,-0.1283,-0.1347,-0.1336,-0.1387,-0.1387,-0.1387,-0.1388,-0.1388,-0.1388,-0.072,-0.0744,-0.0758,-0.0809,-0.0855,-0.0947,-0.1132,-0.1217,-0.1321,-0.1291,-0.1375,-0.1361,-0.1357,-0.1344,-0.1392,-0.1392,-0.1391,-0.1391,-0.139,-0.0627,-0.0661,-0.0673,-0.0714,-0.0808,-0.0875,-0.1058,-0.118,-0.1272,-0.1278,-0.1266,-0.1271,-0.1259,-0.1258,-0.1241,-0.126,-0.1259,-0.1257,0,-0.0566,-0.0583,-0.0603,-0.065,-0.0713,-0.0828,-0.0923,-0.1038,-0.1138,-0.109,-0.1256,-0.1237,-0.1241,-0.1221,-0.1218,-0.1193,0,0,0,-0.0508,-0.0529,-0.053,-0.0586,-0.0657,-0.0782,-0.0937,-0.0952,-0.111,-0.115,-0.121,-0.1222,-0.1322,-0.1405,-0.1399,-0.1395,-0.1374,0,0]},{"header":{"parameterUnit":"m.s-1","parameterCategory":2,"la1":30.2992,"la2":30.254,"lo1":-89.0895,"lo2":-89.0443,"dy":0.0025,"dx":0.0025,"nx":19,"ny":19,"refTime":"2026-05-02T21:00:00:Z","depth":"4","parameterNumber":3,"parameterNumberName":"V-component_of_CURRENTS"},"data":[0,0,0,0.0008,0.0009,0.0071,0.0071,0.0144,0.0145,0,0,0,0,0,0,0,0,0,0,0,-0.0019,-0.0019,0.0008,0.0009,0.0071,0.0071,0.0144,0.0145,0,0,0,0,0,0,0,0,0,0,0,-0.0019,-0.0019,-0.0019,0.0009,0.0071,0.0072,0.0144,0.01,0,0,0,0,0,0,0,0,0,0,0.0042,0.0016,-0.0019,-0.0019,0.001,0.0071,0.0072,0.0098,0.0103,0.0112,0,0.0113,0,0.013,0.0149,0.0149,0,0,0,0.0016,0.0012,0.0027,-0.0019,0.001,0.0071,0.0045,0.0101,0.0106,0.0118,0.0114,0.0117,0.0131,0.0149,0.0149,0.0183,0.0183,0,0,0.0013,-0.0003,0.0024,0.003,0.0016,0.0043,0.0047,0.0105,0.0106,0.0114,0.0119,0.0132,0.0149,0.015,0.0183,0.0183,0,0,0,-0.0002,-0.0006,0.0009,0.0027,0.0038,0.0045,0.0049,0.0103,0.0107,0.012,0.0133,0.015,0.015,0.0183,0.0183,0.0128,0,0,0,-0.0003,-0.0015,0.0007,-0.0002,0.0037,0.0073,0.0047,0.0103,0.0111,0.0133,0.015,0.0151,0.0183,0.0183,0.013,0.0099,0,0,0,-0.002,-0.0016,-0.0013,-0.0003,0.0021,0.0072,0.0081,0.0106,0.0118,0.0149,0.0151,0.0183,0.0183,0.0131,0.0103,0.0082,0,0,0,-0.0033,-0.0036,-0.0014,-0.001,0.0021,0.0044,0.0081,0.0102,0.0123,0.015,0.0183,0.0183,0.0132,0.0104,0.0084,0.0057,0,0,0,-0.0045,-0.0038,-0.0035,-0.0013,0.0009,0.0036,0.0048,0.009,0.0125,0.0165,0.0166,0.0129,0.0103,0.0083,0.0047,0,0,0,0,-0.0043,-0.0036,-0.0028,-0.0007,0.0012,0.0023,0.0065,0.0078,0.0112,0.0137,0.0141,0.0126,0.0115,0.0106,0.0182,0.0182,0.0182,0.0182,0.0182,-0.0067,-0.0045,-0.0035,-0.0008,-0.0002,0.0018,0.0021,0.0051,0.0088,0.0092,0.009,0.0048,0.0037,0.0104,0.0104,0.0104,0.0104,0.0103,0.0103,-0.0063,-0.0049,-0.0035,-0.002,-0.0018,-0.0015,-0.0006,0.0006,0.0015,0.0053,0.0045,0.0059,0.0098,0.0099,0.01,0.0101,0.0101,0.0101,0.0102,-0.0068,-0.0057,-0.0049,-0.0037,-0.0054,-0.0056,-0.0101,-0.008,-0.0033,-0.0048,-0.0042,0.0013,0.0008,-0.0047,-0.0047,-0.0047,-0.0047,-0.0047,-0.0048,-0.0069,-0.0057,-0.0067,-0.0065,-0.01,-0.0139,-0.0165,-0.017,-0.0126,-0.011,-0.0062,-0.0002,0.0003,0.0,-0.0051,-0.005,-0.005,-0.005,-0.0049,-0.0046,-0.0057,-0.0078,-0.0114,-0.0196,-0.0239,-0.0261,-0.0249,-0.0256,-0.0217,-0.0136,-0.013,-0.0113,-0.0105,-0.011,-0.0197,-0.0197,-0.0198,0,-0.0039,-0.0041,-0.0094,-0.0181,-0.0275,-0.0311,-0.0354,-0.0339,-0.026,-0.0255,-0.0234,-0.0144,-0.0139,-0.0119,-0.0113,-0.012,0,0,0,-0.0017,-0.0044,-0.0097,-0.0191,-0.0321,-0.0355,-0.0366,-0.0359,-0.0267,-0.0265,-0.0212,-0.0208,-0.0135,-0.0062,-0.0022,-0.0016,-0.0017,0,0]}]]